When you browse on this site, cookies collect data to enhance your experience and personalize the content and advertising you see.
Visit our Privacy Policy to learn more. By continuing to use the site, you agree to this use of cookies and data.
  • En España
  • Lista de países
  • Para 7 días
  • Temperatura del agua
  • El tiempo en el mapa
  • Informadores
  • user-avatar
    Iniciar sesión

    Tiempo cada hora Leicester

    Hoy, 2 Junio, Martes

    Tiempo Temperatura Precipitaciones Viento Presión Humedad
    00:00 +9°C° 0 mm 2 mps 761 mmHg 90%
    01:00 +9°C° 0 mm 2 mps 761 mmHg 91%
    02:00 +8°C° 0 mm 2 mps 761 mmHg 91%
    03:00 +8°C° 0 mm 2 mps 761 mmHg 92%
    04:00 +9°C° 0 mm 2 mps 760 mmHg 90%
    05:00 +9°C° 0 mm 2 mps 760 mmHg 87%
    06:00 +10°C° 0 mm 2 mps 760 mmHg 85%
    07:00 +13°C° 0 mm 2 mps 760 mmHg 80%
    08:00 +15°C° 0 mm 2 mps 760 mmHg 74%
    09:00 +16°C° 0 mm 2 mps 760 mmHg 68%
    10:00 +17°C° 0 mm 2 mps 759 mmHg 64%
    11:00 +18°C° 0 mm 2 mps 759 mmHg 60%
    12:00 +19°C° 0 mm 2 mps 759 mmHg 56%
    13:00 +20°C° 0 mm 2 mps 758 mmHg 55%
    14:00 +20°C° 0 mm 2 mps 758 mmHg 53%
    15:00 +21°C° 0 mm 2 mps 757 mmHg 52%
    16:00 +21°C° 0 mm 2 mps 757 mmHg 57%
    17:00 +21°C° 0 mm 1 mps 756 mmHg 61%
    18:00 +21°C° 0 mm 1 mps 756 mmHg 66%
    19:00 +19°C° 0 mm 1 mps 755 mmHg 69%
    20:00 +16°C° 0 mm 2 mps 755 mmHg 73%
    21:00 +15°C° 0 mm 2 mps 755 mmHg 76%
    22:00 +14°C° 0 mm 2 mps 754 mmHg 77%
    23:00 +14°C° 0 mm 2 mps 754 mmHg 79%

    Mañana, 3 Junio, Miércoles

    Tiempo Temperatura Precipitaciones Viento Presión Humedad
    00:00 +13°C° 0 mm 2 mps 754 mmHg 80%
    01:00 +13°C° 0 mm 2 mps 753 mmHg 78%
    02:00 +13°C° 0 mm 2 mps 752 mmHg 77%
    03:00 +13°C° 0 mm 2 mps 752 mmHg 75%
    04:00 +13°C° 0 mm 2 mps 751 mmHg 78%
    05:00 +13°C° 0 mm 2 mps 751 mmHg 81%
    06:00 +14°C° 0 mm 2 mps 751 mmHg 84%
    07:00 +12°C° 0.1 mm 3 mps 751 mmHg 85%
    08:00 +12°C° 0.1 mm 3 mps 751 mmHg 87%
    09:00 +12°C° 0.1 mm 4 mps 751 mmHg 89%
    10:00 +11°C° 0.2 mm 4 mps 751 mmHg 89%
    11:00 +11°C° 0.2 mm 4 mps 751 mmHg 89%
    12:00 +11°C° 0.2 mm 4 mps 751 mmHg 90%
    13:00 +11°C° 0.1 mm 4 mps 750 mmHg 89%
    14:00 +11°C° 0.1 mm 4 mps 750 mmHg 89%
    15:00 +11°C° 0.1 mm 4 mps 750 mmHg 88%
    16:00 +12°C° 0 mm 4 mps 750 mmHg 86%
    17:00 +12°C° 0 mm 4 mps 750 mmHg 84%
    18:00 +13°C° 0 mm 4 mps 750 mmHg 82%
    19:00 +12°C° 0 mm 4 mps 750 mmHg 84%
    20:00 +11°C° 0 mm 3 mps 750 mmHg 87%
    21:00 +10°C° 0 mm 3 mps 751 mmHg 89%
    22:00 +10°C° 0 mm 3 mps 750 mmHg 90%
    23:00 +10°C° 0 mm 4 mps 750 mmHg 91%

    Pasado mañana, 4 Junio, Jueves

    Tiempo Temperatura Precipitaciones Viento Presión Humedad
    00:00 +10°C° 0 mm 4 mps 750 mmHg 91%
    01:00 +8°C° 0 mm 5 mps 750 mmHg 90%
    02:00 +8°C° 0 mm 5 mps 749 mmHg 89%
    03:00 +8°C° 0 mm 5 mps 749 mmHg 87%
    04:00 +8°C° 0 mm 5 mps 749 mmHg 85%
    05:00 +8°C° 0 mm 5 mps 749 mmHg 82%
    06:00 +8°C° 0 mm 5 mps 748 mmHg 80%
    07:00 +9°C° 0 mm 5 mps 748 mmHg 74%
    08:00 +10°C° 0 mm 5 mps 748 mmHg 69%
    09:00 +10°C° 0 mm 5 mps 748 mmHg 63%
    10:00 +12°C° 0.1 mm 5 mps 747 mmHg 63%
    11:00 +12°C° 0.1 mm 5 mps 747 mmHg 62%
    12:00 +13°C° 0.1 mm 5 mps 747 mmHg 61%
    13:00 +13°C° 0.1 mm 5 mps 746 mmHg 61%
    14:00 +13°C° 0.1 mm 4 mps 746 mmHg 61%
    15:00 +14°C° 0.1 mm 4 mps 746 mmHg 61%
    16:00 +13°C° 0.3 mm 4 mps 745 mmHg 67%
    17:00 +12°C° 0.3 mm 3 mps 745 mmHg 73%
    18:00 +12°C° 0.3 mm 3 mps 745 mmHg 79%
    19:00 +11°C° 0.7 mm 3 mps 745 mmHg 83%
    20:00 +9°C° 0.7 mm 3 mps 745 mmHg 88%
    21:00 +8°C° 0.7 mm 3 mps 746 mmHg 92%
    22:00 +7°C° 0 mm 3 mps 745 mmHg 91%
    23:00 +6°C° 0 mm 2 mps 745 mmHg 89%

    5 Junio, Viernes

    Tiempo Temperatura Precipitaciones Viento Presión Humedad
    00:00 +5°C° 0 mm 2 mps 745 mmHg 87%
    01:00 +4°C° 0 mm 3 mps 745 mmHg 87%
    02:00 +3°C° 0 mm 3 mps 746 mmHg 88%
    03:00 +3°C° 0 mm 3 mps 746 mmHg 88%
    04:00 +4°C° 0 mm 4 mps 746 mmHg 87%
    05:00 +5°C° 0 mm 4 mps 746 mmHg 85%
    06:00 +6°C° 0 mm 4 mps 746 mmHg 83%
    07:00 +8°C° 0 mm 5 mps 746 mmHg 76%
    08:00 +9°C° 0 mm 5 mps 746 mmHg 70%
    09:00 +12°C° 0 mm 5 mps 745 mmHg 63%
    10:00 +12°C° 0.1 mm 5 mps 745 mmHg 65%
    11:00 +13°C° 0.1 mm 5 mps 745 mmHg 66%
    12:00 +13°C° 0.1 mm 5 mps 745 mmHg 68%
    13:00 +14°C° 0.1 mm 6 mps 745 mmHg 65%
    14:00 +14°C° 0.1 mm 6 mps 744 mmHg 62%
    15:00 +14°C° 0.1 mm 7 mps 744 mmHg 59%
    16:00 +13°C° 0 mm 6 mps 744 mmHg 62%
    17:00 +13°C° 0 mm 5 mps 744 mmHg 65%
    18:00 +12°C° 0 mm 5 mps 744 mmHg 68%
    19:00 +11°C° 0.1 mm 4 mps 744 mmHg 74%
    20:00 +10°C° 0.1 mm 3 mps 744 mmHg 81%
    21:00 +10°C° 0.1 mm 2 mps 744 mmHg 87%
    22:00 +9°C° 0.2 mm 2 mps 744 mmHg 89%
    23:00 +9°C° 0.2 mm 2 mps 743 mmHg 92%

    6 Junio, Sábado

    Tiempo Temperatura Precipitaciones Viento Presión Humedad
    00:00 +9°C° 0.2 mm 2 mps 743 mmHg 95%
    01:00 +9°C° 0.2 mm 2 mps 743 mmHg 95%
    02:00 +8°C° 0.2 mm 3 mps 743 mmHg 95%
    03:00 +8°C° 0.2 mm 3 mps 743 mmHg 95%
    04:00 +7°C° 0 mm 4 mps 744 mmHg 94%
    05:00 +8°C° 0 mm 4 mps 744 mmHg 93%
    06:00 +8°C° 0 mm 4 mps 744 mmHg 92%
    07:00 +9°C° 0.3 mm 5 mps 744 mmHg 87%
    08:00 +10°C° 0.3 mm 5 mps 745 mmHg 82%
    09:00 +10°C° 0.3 mm 5 mps 745 mmHg 78%
    10:00 +11°C° 0.1 mm 6 mps 745 mmHg 69%
    11:00 +12°C° 0.1 mm 7 mps 745 mmHg 61%
    12:00 +14°C° 0.1 mm 7 mps 745 mmHg 53%
    13:00 +12°C° 0.1 mm 8 mps 745 mmHg 53%
    14:00 +12°C° 0.1 mm 8 mps 745 mmHg 53%
    15:00 +12°C° 0.1 mm 8 mps 745 mmHg 53%
    16:00 +11°C° 0.1 mm 8 mps 745 mmHg 55%
    17:00 +11°C° 0.1 mm 8 mps 745 mmHg 57%
    18:00 +10°C° 0.1 mm 7 mps 746 mmHg 59%
    19:00 +8°C° 0 mm 7 mps 746 mmHg 62%
    20:00 +7°C° 0 mm 6 mps 746 mmHg 65%
    21:00 +6°C° 0 mm 5 mps 746 mmHg 68%
    22:00 +5°C° 0 mm 6 mps 746 mmHg 69%
    23:00 +4°C° 0 mm 6 mps 746 mmHg 71%

    7 Junio, Domingo

    Tiempo Temperatura Precipitaciones Viento Presión Humedad
    00:00 +4°C° 0 mm 6 mps 746 mmHg 72%
    01:00 +4°C° 0 mm 6 mps 746 mmHg 72%
    02:00 +5°C° 0 mm 7 mps 746 mmHg 73%
    03:00 +5°C° 0 mm 7 mps 746 mmHg 73%
    04:00 +5°C° 0 mm 7 mps 747 mmHg 73%
    05:00 +5°C° 0 mm 7 mps 747 mmHg 74%
    06:00 +5°C° 0 mm 7 mps 747 mmHg 74%
    07:00 +6°C° 0.1 mm 7 mps 747 mmHg 73%
    08:00 +8°C° 0.1 mm 7 mps 748 mmHg 73%
    09:00 +8°C° 0.1 mm 7 mps 748 mmHg 72%
    10:00 +9°C° 0.2 mm 8 mps 748 mmHg 70%
    11:00 +9°C° 0.2 mm 8 mps 749 mmHg 67%
    12:00 +10°C° 0.2 mm 8 mps 749 mmHg 65%
    13:00 +10°C° 0.2 mm 8 mps 749 mmHg 64%
    14:00 +11°C° 0.2 mm 7 mps 749 mmHg 63%
    15:00 +11°C° 0.2 mm 7 mps 750 mmHg 62%
    16:00 +11°C° 0.1 mm 6 mps 750 mmHg 64%
    17:00 +10°C° 0.1 mm 6 mps 750 mmHg 66%
    18:00 +10°C° 0.1 mm 5 mps 750 mmHg 69%
    19:00 +10°C° 0.1 mm 4 mps 751 mmHg 73%
    20:00 +7°C° 0.1 mm 4 mps 751 mmHg 77%
    21:00 +7°C° 0.1 mm 3 mps 751 mmHg 80%
    22:00 +5°C° 0 mm 3 mps 751 mmHg 83%
    23:00 +5°C° 0 mm 4 mps 751 mmHg 85%
    Mostrar más